Hourly Weather Roundup
Issued by NWS Central Illinois

Home | Current Version | Previous Version | Text Only | Print | Product List | Glossary On
Versions: 1 2 3 4 5 6 7 8 9 10 11 12 13 14 15 16 17 18 19 20 21 22 23 24 25 26 27 28 29 30 31 32 33 34 35 36 37 38 39 40 41 42 43 44 45 46 47 48 49 50
000
NZUS43 KILX 260010
HWRILX

AREA WEATHER ROUNDUP
NATIONAL WEATHER SERVICE, LINCOLN IL
600 PM CST SAT FEB 25 2017


CITY           SKY/WX    TMP DP  RH WIND       PRES   REMARKS
BLOOMINGTON    CLOUDY    27  17  66 W14       30.03R WCI  16
6HR MIN TEMP:  27; 6HR MAX TEMP:  34; 6HR PCP: TRACE;

CHAMPAIGN      PTCLDY    30  13  49 W15       30.04R WCI  19
6HR MIN TEMP:  30; 6HR MAX TEMP:  35;

DECATUR        MOCLDY    31  12  45 NW15G22   30.06R WCI  20
6HR MIN TEMP:  30; 6HR MAX TEMP:  35;

EFFINGHAM      CLEAR    N/A N/A N/A W9        30.09S
FLORA          CLEAR     37  17  44 W9        30.09R WCI  30
6HR MIN TEMP:  35; 6HR MAX TEMP:  40;

GALESBURG      CLOUDY    28  20  70 W7        30.05R WCI  21
6HR MIN TEMP:  24; 6HR MAX TEMP:  31;

JACKSONVILLE   CLOUDY    31  13  47 W9        30.09R WCI  23
6HR MIN TEMP:  30; 6HR MAX TEMP:  35;

LACON          PTCLDY    29  17  59 W7        30.04R WCI  22
6HR MIN TEMP:  27; 6HR MAX TEMP:  32;

LAWRENCEVILLE  CLEAR     34  18  52 W12       30.09R WCI  25
6HR MIN TEMP:  34; 6HR MAX TEMP:  39;

LITCHFIELD     PTCLDY    32  15  50 W9        30.09R WCI  24
6HR MIN TEMP:  31; 6HR MAX TEMP:  36;

$$


CITY           SKY/WX    TMP DP  RH WIND       PRES   REMARKS
LINCOLN        PTCLDY    32  15  49 W5        30.06S WCI  27
6HR MIN TEMP:  31; 6HR MAX TEMP:  35;

MACOMB         CLOUDY    31  17  57 NW8       30.09R WCI  23
6HR MIN TEMP:  28; 6HR MAX TEMP:  33;

MATTOON        CLEAR     31  15  52 W15       30.05R WCI  20
6HR MIN TEMP:  31; 6HR MAX TEMP:  36;

MT CARMEL AP   CLEAR     33  20  59 W8        30.09R WCI  26
6HR MIN TEMP:  33; 6HR MAX TEMP:  38;

OLNEY-NOBLE AP CLEAR     34  19  55 W8        30.09R WCI  27
PARIS          CLEAR     31  16  54 W16       30.05R WCI  20
6HR MIN TEMP:  31; 6HR MAX TEMP:  35;

PEORIA         PTCLDY    30  15  53 NW7       30.05R WCI  23
6HR MIN TEMP:  26; 6HR MAX TEMP:  32;

PONTIAC        CLEAR     29  17  61 W14       30.03R WCI  19
6HR MIN TEMP:  29; 6HR MAX TEMP:  33;

RANTOUL        CLEAR     30  19  63 W12       30.02S WCI  21
6HR MIN TEMP:  30; 6HR MAX TEMP:  36;

SPRINGFIELD    CLEAR     33  11  39 W9        30.08R WCI  25
6HR MIN TEMP:  33; 6HR MAX TEMP:  37;

TAYLORVILLE    CLEAR     32  13  45 W7        30.08R WCI  25
6HR MIN TEMP:  31; 6HR MAX TEMP:  36;

$$

...REGIONAL REPORTS...


CITY           SKY/WX    TMP DP  RH WIND       PRES   REMARKS
CHICAGO O`HARE MOCLDY    27  14  58 W8        29.96R WCI  19
KANKAKEE       MOCLDY    28  16  61 W9G17     30.01R WCI  19
MOLINE         CLOUDY    30  16  56 W12       30.04R WCI  20
MOUNT STERLING MOCLDY    31  13  47 W6        30.08R WCI  26
MOUNT VERNON   CLEAR     36  14  40 VRB5      30.10S WCI  32
PITTSFIELD     CLEAR     34  13  42 W3        30.11R
QUINCY         PTCLDY    32  14  47 W7        30.09R WCI  26
ROCKFORD       MOCLDY    25  13  60 W9        30.00R WCI  15
$$


CITY           SKY/WX    TMP DP  RH WIND       PRES   REMARKS
BURLINGTON     CLOUDY    30  17  58 W6        30.06S WCI  24
CEDAR RAPIDS   CLEAR     24  17  74 W7        30.02S WCI  16
DES MOINES     MOCLDY    31  19  61 SW7       30.02F WCI  24
KIRKSVILLE     CLEAR     32  11  41 W3        30.07F
OTTUMWA        CLEAR     30  17  58 W6        30.04F WCI  24
ST LOUIS       PTCLDY    37  11  34 NW8       30.11R WCI  31
$$


CITY           SKY/WX    TMP DP  RH WIND       PRES   REMARKS
TERRE HAUTE    PTCLDY    33  13  43 W14       30.05R WCI  23
EVANSVILLE     CLEAR     36  15  42 W12G18    30.11R WCI  28
INDIANAPOLIS   PTCLDY    30  15  53 W15       30.00R WCI  19
LAFAYETTE      CLOUDY    29  18  63 W16       30.01R WCI  17
MADISON        MOCLDY    22  13  68 W5        29.94R WCI  16
MILWAUKEE      PTCLDY    24  11  57 W8        29.93R WCI  15
$$






USA.gov is the U.S. government's official web portal to all federal, state and local government web resources and services.